Hourly Data Report for October 01, 2017

All times are specified in Local Standard Time (LST). Add 1 hour to adjust for Daylight Saving Time where and when it is observed.

KUGLUKTUK A
NUNAVUT

67°49'00.000" N
115°08'38.000" W
22.60 m
2300903
71938
YCO

Download Data

Hourly Data (October 2017)
Hourly Data Report for October 1, 2017
Temp Definition
°C
Dew Point Temp Definition
°C
Rel Hum Definition
%
Wind Dir Definition
10's deg

Wind Spd Definition
km/h
Visibility Definition
km
Stn Press Definition
kPa
Hmdx Definition


Wind Chill Definition


Weather Definition


TIME
00:00 Legend Double Dagger 1.1 -0.1 92 31 7 16.1 101.13     LegendNANA
01:00 Legend Double Dagger 1.4 0.0 90 31 14 16.1 101.14     LegendNANA
02:00 Legend Double Dagger 1.5 0.2 91 33 22 16.1 101.15     Cloudy
03:00 Legend Double Dagger 2.0 0.3 89 33 27 16.1 101.16     LegendNANA
04:00 Legend Double Dagger 2.1 -0.1 85 35 30 24.1 101.18     LegendNANA
05:00 Legend Double Dagger 2.0 0.1 87 34 28 24.1 101.22     Cloudy
06:00 Legend Double Dagger 1.8 0.0 87 33 27 24.1 101.25     LegendNANA
07:00 Legend Double Dagger 1.8 0.1 89 33 30 24.1 101.28     Snow
08:00 Legend Double Dagger 2.0 -0.3 85 33 36 24.1 101.31     Rain
09:00 Legend Double Dagger 1.9 -0.5 84 33 31 24.1 101.36     Rain,Snow
10:00 Legend Double Dagger 1.8 -0.3 86 33 30 24.1 101.40     Snow
11:00 Legend Double Dagger 2.0 -0.6 83 32 24 24.1 101.46     Snow Showers
12:00 Legend Double Dagger 2.5 -1.4 75 31 26 24.1 101.48     LegendNANA
13:00 Legend Double Dagger 2.1 -3.1 68 30 25 24.1 101.51     LegendNANA
14:00 Legend Double Dagger 2.8 -2.6 68 29 15 24.1 101.55     Mostly Cloudy
15:00 Legend Double Dagger 2.5 -4.0 62 28 24 24.1 101.57     LegendNANA
16:00 Legend Double Dagger 3.0 -3.8 61 29 17 24.1 101.58     LegendNANA
17:00 Legend Double Dagger 1.1 -3.1 74 23 13 24.1 101.57     Mainly Clear
18:00 Legend Double Dagger 0.1 -3.6 76 23 16 24.1 101.54     LegendNANA
19:00 Legend Double Dagger 0.1 -3.9 75 24 24 24.1 101.52     LegendNANA
20:00 Legend Double Dagger -0.2 -3.4 79 23 18 24.1 101.47   -5 Mainly Clear
21:00 Legend Double Dagger 2.1 -2.1 74 24 28 16.1 101.38     Snow
22:00 Legend Double Dagger 2.4 -1.5 76 26 30 24.1 101.35     LegendNANA
23:00 Legend Double Dagger 1.9 -1.6 78 28 34 24.1 101.39     Mainly Clear

Notes on Data Quality.

Legend

  • E = Estimated
  • M = Missing
  • NA = Not Available
  • ‡ = Partner data that is not subject to review by the National Climate Archives
Date modified: